N2CJC Weather Reports


time (UTC)temp
C
wind
direction
speed
KPH
gust
KPH
rain 1hr
cm
rain 24hr
cm
rain mn
cm
humidity
%
barometer
mb
20260505064016 17 0 12.9 29.0 0.00 0.00 0.00 71 1003.2
20260505063518 17 0 14.5 30.6 0.00 0.00 0.00 71 1003.1
20260505063017 17 0 8.0 16.1 0.00 0.00 0.00 70 1002.9
20260505062538 17 0 6.4 14.5 0.00 0.00 0.00 70 1002.8
20260505062018 17 0 6.4 17.7 0.00 0.00 0.00 70 1002.7
20260505061516 17 0 9.7 17.7 0.00 0.00 0.00 70 1002.7
20260505061017 17 0 8.0 24.1 0.00 0.00 0.00 70 1002.7
20260505060517 17 0 6.4 16.1 0.00 0.00 0.00 69 1002.9
20260505060058 17 0 9.7 22.5 0.00 0.00 0.00 69 1002.8
20260505055517 17 0 9.7 22.5 0.00 0.00 0.00 69 1002.8
20260505055017 17 0 9.7 24.1 0.00 0.00 0.00 69 1002.9
20260505054517 17 0 6.4 14.5 0.00 0.00 0.00 69 1002.9
20260505054018 17 0 9.7 29.0 0.00 0.00 0.00 69 1003.0
20260505053516 17 0 9.7 20.9 0.00 0.00 0.00 69 1003.0
20260505053037 17 0 8.0 19.3 0.00 0.00 0.00 69 1003.0
20260505052518 17 0 9.7 22.5 0.00 0.00 0.00 69 1002.8
20260505052017 17 0 8.0 22.5 0.00 0.00 0.00 69 1003.0
20260505051517 17 0 4.8 9.7 0.00 0.00 0.00 69 1003.1
20260505051018 17 0 8.0 20.9 0.00 0.00 0.00 69 1002.8
20260505050517 17 0 8.0 19.3 0.00 0.00 0.00 68 1002.9
20260505041517 17 0 12.9 24.1 0.00 0.00 0.00 63 1003.1
20260505041018 17 0 12.9 38.6 0.00 0.00 0.00 63 1003.1
20260505040517 17 0 4.8 16.1 0.00 0.00 0.00 63 1003.0
20260505040017 17 0 4.8 11.3 0.00 0.00 0.00 63 1003.1
20260505035517 17 0 6.4 14.5 0.00 0.00 0.00 63 1003.2
20260505035017 17 0 9.7 20.9 0.00 0.00 0.00 62 1003.4
20260505034517 17 0 8.0 19.3 0.00 0.00 0.00 63 1003.3
20260505034056 17 0 9.7 19.3 0.00 0.00 0.00 63 1003.4
20260505033516 17 0 12.9 27.4 0.00 0.00 0.00 63 1003.4
20260505033017 16 0 11.3 25.7 0.00 0.00 0.00 63 1003.5
20260505032516 16 0 14.5 30.6 0.00 0.00 0.00 64 1003.4
20260505032037 15 0 14.5 25.7 0.00 0.00 0.00 66 1003.4
20260505031516 13 0 14.5 37.0 0.00 0.00 0.00 69 1003.4
20260505031037 12 0 9.7 24.1 0.00 0.00 0.00 74 1003.3
20260505030516 12 0 3.2 9.7 0.00 0.00 0.00 76 1003.1
20260505030017 12 0 3.2 6.4 0.00 0.00 0.00 76 1003.0
20260505025516 12 0.0 3.2 0.00 0.00 0.00 74 1003.0
20260505025016 12 0.0 0.0 0.00 0.00 0.00 73 1003.0
20260505024516 12 0.0 0.0 0.00 0.00 0.00 72 1003.0
20260505024017 12 0.0 1.6 0.00 0.00 0.00 72 1003.0
20260505023536 12 0.0 4.8 0.00 0.00 0.00 72 1002.9
20260505023016 12 0.0 1.6 0.00 0.00 0.00 71 1002.9
20260505022517 13 0.0 1.6 0.00 0.00 0.00 71 1003.0
20260505022057 13 0.0 0.0 0.00 0.00 0.00 70 1003.0
20260505021516 13 0.0 0.0 0.00 0.00 0.00 70 1003.0
20260505021017 13 0.0 1.6 0.00 0.00 0.00 69 1003.0
20260505020517 13 0.0 1.6 0.00 0.00 0.00 68 1003.1
20260505020036 13 0.0 1.6 0.00 0.00 0.00 67 1003.2
20260505015516 14 0.0 1.6 0.00 0.00 0.00 67 1003.2
20260505015016 14 0.0 1.6 0.00 0.00 0.00 66 1003.2
20260505014516 14 0.0 1.6 0.00 0.00 0.00 65 1003.2
20260505014016 15 0.0 1.6 0.00 0.00 0.00 65 1003.3
20260505013516 15 0.0 1.6 0.00 0.00 0.00 64 1003.3
20260505013016 15 0.0 1.6 0.00 0.00 0.00 63 1003.3
20260505012516 16 0.0 1.6 0.00 0.00 0.00 61 1003.3
20260505012017 16 0.0 1.6 0.00 0.00 0.00 59 1003.3
20260505011517 16 0.0 1.6 0.00 0.00 0.00 58 1003.2
20260505011016 16 0.0 1.6 0.00 0.00 0.00 57 1003.1
20260505010516 17 0.0 1.6 0.00 0.00 0.00 57 1003.1
20260505010016 17 0.0 1.6 0.00 0.00 0.00 56 1002.9
20260505005516 17 0.0 4.8 0.00 0.00 0.00 56 1003.0
20260505005016 17 0 1.6 3.2 0.00 0.00 0.00 55 1002.9
20260505004516 18 0.0 1.6 0.00 0.00 0.00 53 1002.9
20260505004016 18 0.0 1.6 0.00 0.00 0.00 52 1002.9
20260505003516 19 0.0 1.6 0.00 0.00 0.00 50 1003.0
20260505003016 20 0.0 1.6 0.00 0.00 0.00 49 1003.0
20260505002516 20 0.0 0.0 0.00 0.00 0.00 48 1003.0
20260505002016 20 0.0 3.2 0.00 0.00 0.00 46 1003.0
20260505001516 20 0.0 3.2 0.00 0.00 0.00 45 1003.1
20260505001016 21 0 1.6 4.8 0.00 0.00 0.00 44 1003.0
20260505000516 21 0 1.6 3.2 0.00 0.00 0.00 44 1003.0
20260505000016 21 0.0 3.2 0.00 0.00 0.00 43 1003.0
20260504235516 21 0 1.6 3.2 0.00 0.00 0.00 41 1003.0
20260504235016 21 0 3.2 8.0 0.00 0.00 0.00 40 1002.9
20260504234516 22 0 3.2 6.4 0.00 0.00 0.00 40 1002.8
20260504234016 22 0 3.2 6.4 0.00 0.00 0.00 39 1002.9
20260504233516 22 0 4.8 8.0 0.00 0.00 0.00 38 1002.8
20260504233036 22 0 4.8 9.7 0.00 0.00 0.00 37 1002.7
20260504232516 22 0 3.2 6.4 0.00 0.00 0.00 37 1002.7
20260504232016 22 0 4.8 9.7 0.00 0.00 0.00 36 1002.6
20260504231516 23 0 4.8 14.5 0.00 0.00 0.00 36 1002.7
20260504231016 23 0 6.4 19.3 0.00 0.00 0.00 36 1002.7
20260504230516 23 0 8.0 20.9 0.00 0.00 0.00 36 1002.7
20260504230016 23 0 3.2 8.0 0.00 0.00 0.00 38 1002.6
20260504225516 23 0 3.2 12.9 0.00 0.00 0.00 38 1002.6
20260504225016 23 0 3.2 8.0 0.00 0.00 0.00 36 1002.6
20260504224516 23 0 4.8 9.7 0.00 0.00 0.00 37 1002.6
20260504224016 23 0 6.4 19.3 0.00 0.00 0.00 35 1002.6
20260504223516 23 0 9.7 20.9 0.00 0.00 0.00 35 1002.6
20260504223016 23 0 8.0 17.7 0.00 0.00 0.00 35 1002.7
20260504222516 23 0 9.7 22.5 0.00 0.00 0.00 34 1002.7
20260504222016 24 0 9.7 22.5 0.00 0.00 0.00 35 1002.6
20260504221516 24 0 9.7 24.1 0.00 0.00 0.00 33 1002.7
20260504221016 23 0 9.7 19.3 0.00 0.00 0.00 34 1002.7
20260504220516 23 0 9.7 25.7 0.00 0.00 0.00 34 1002.7
20260504220016 23 0 9.7 22.5 0.00 0.00 0.00 36 1002.8
20260504215636 24 0 12.9 22.5 0.00 0.00 0.00 34 1002.8
20260504215016 24 0 12.9 27.4 0.00 0.00 0.00 34 1002.9
20260504214516 24 0 11.3 25.7 0.00 0.00 0.00 34 1002.9
20260504214036 24 0 12.9 29.0 0.00 0.00 0.00 35 1003.1
20260504213516 24 0 12.9 32.2 0.00 0.00 0.00 33 1003.1
20260504213016 24 0 9.7 27.4 0.00 0.00 0.00 35 1002.9
20260504212516 24 0 12.9 22.5 0.00 0.00 0.00 34 1003.0
20260504212016 24 0 9.7 19.3 0.00 0.00 0.00 35 1003.2
20260504211516 24 0 12.9 25.7 0.00 0.00 0.00 35 1003.1
20260504211016 24 0 11.3 27.4 0.00 0.00 0.00 35 1003.3
20260504210516 24 0 14.5 29.0 0.00 0.00 0.00 36 1003.2
20260504210016 24 0 9.7 24.1 0.00 0.00 0.00 36 1003.3
20260504205516 24 0 12.9 24.1 0.00 0.00 0.00 35 1003.3
20260504205036 24 0 12.9 25.7 0.00 0.00 0.00 38 1003.2
20260504204536 24 0 12.9 29.0 0.00 0.00 0.00 37 1003.4
20260504204016 24 0 14.5 29.0 0.00 0.00 0.00 36 1003.4
20260504203516 24 0 12.9 25.7 0.00 0.00 0.00 37 1003.5
20260504203016 24 0 11.3 27.4 0.00 0.00 0.00 38 1003.4
20260504202536 23 0 12.9 25.7 0.00 0.00 0.00 37 1003.6
20260504202016 23 0 14.5 32.2 0.00 0.00 0.00 38 1003.6
20260504201516 23 0 14.5 33.8 0.00 0.00 0.00 37 1003.8
20260504201016 24 0 12.9 30.6 0.00 0.00 0.00 36 1003.7
20260504200516 23 0 16.1 27.4 0.00 0.00 0.00 36 1003.8
20260504200015 23 0 12.9 33.8 0.00 0.00 0.00 38 1003.8
20260504195516 23 0 14.5 43.5 0.00 0.00 0.00 40 1004.0
20260504195016 23 0 8.0 27.4 0.00 0.00 0.00 40 1003.9
20260504194516 23 0 17.7 38.6 0.00 0.00 0.00 38 1004.0
20260504194016 23 0 11.3 29.0 0.00 0.00 0.00 38 1004.2
20260504193516 23 0 11.3 22.5 0.00 0.00 0.00 39 1004.1
20260504193016 23 0 16.1 32.2 0.00 0.00 0.00 39 1004.3
20260504192516 23 0 17.7 33.8 0.00 0.00 0.00 39 1004.4
20260504192036 23 0 11.3 32.2 0.00 0.00 0.00 39 1004.3
20260504191516 23 0 12.9 24.1 0.00 0.00 0.00 38 1004.5
20260504191016 23 0 12.9 32.2 0.00 0.00 0.00 39 1004.5
20260504190516 23 0 16.1 37.0 0.00 0.00 0.00 39 1004.7
20260504190015 23 0 14.5 30.6 0.00 0.00 0.00 40 1004.7
20260504185536 23 0 16.1 35.4 0.00 0.00 0.00 39 1004.8
20260504185016 23 0 9.7 24.1 0.00 0.00 0.00 41 1004.7
20260504184518 23 0 14.5 27.4 0.00 0.00 0.00 40 1004.8
20260504184038 23 0 12.9 32.2 0.00 0.00 0.00 44 1004.9
20260504183517 22 0 11.3 33.8 0.00 0.00 0.00 44 1004.9
20260504183018 22 0 12.9 24.1 0.00 0.00 0.00 42 1005.0
20260504182518 22 0 12.9 30.6 0.00 0.00 0.00 44 1005.1
20260504182018 22 0 14.5 27.4 0.00 0.00 0.00 43 1005.2
20260504181518 22 0 11.3 27.4 0.00 0.00 0.00 42 1005.3
20260504181018 22 0 14.5 25.7 0.00 0.00 0.00 43 1005.2
20260504180518 22 0 11.3 22.5 0.00 0.00 0.00 45 1005.3
20260504180018 22 0 9.7 25.7 0.00 0.00 0.00 43 1005.4
20260504175518 22 0 12.9 32.2 0.00 0.00 0.00 45 1005.4
20260504175037 22 0 12.9 27.4 0.00 0.00 0.00 44 1005.3
20260504174518 22 0 11.3 22.5 0.00 0.00 0.00 45 1005.5
20260504174018 22 0 11.3 27.4 0.00 0.00 0.00 45 1005.4
20260504173517 22 0 11.3 20.9 0.00 0.00 0.00 46 1005.5
20260504173157 22 0 12.9 29.0 0.00 0.00 0.00 45 1005.5
20260504172517 22 0 9.7 20.9 0.00 0.00 0.00 45 1005.5
20260504172018 22 0 16.1 29.0 0.00 0.00 0.00 46 1005.5
20260504171518 22 0 9.7 20.9 0.00 0.00 0.00 47 1005.5
20260504171017 22 0 11.3 30.6 0.00 0.00 0.00 47 1005.6
20260504170518 21 0 12.9 30.6 0.00 0.00 0.00 49 1005.6
20260504151017 18 0 16.1 41.8 0.00 0.00 0.00 50 1006.3
20260504150517 18 0 17.7 41.8 0.00 0.00 0.00 50 1006.2
20260504141017 17 0 11.3 35.4 0.00 0.00 0.00 52 1006.4
20260504140517 16 0 14.5 30.6 0.00 0.00 0.00 52 1006.4
20260504130517 15 0 11.3 27.4 0.00 0.00 0.00 55 1007.0
20260504110517 11 0 14.5 25.7 0.00 0.00 0.00 58 1006.9
20260504100517 10 0 9.7 30.6 0.00 0.00 0.00 59 1006.9
20260504081517 10 0 9.7 19.3 0.00 0.00 0.00 60 1007.8
20260504081037 10 0 8.0 17.7 0.00 0.00 0.00 61 1007.9
20260504080556 10 0 9.7 27.4 0.00 0.00 0.00 61 1007.8